[Date Prev][Date Next][Thread Prev][Thread Next] - [Date Index][Thread Index][Author Index]

2 Line ISS Keps 10-15



ISS
1 25544U 98067A   02288.14124069  .00088498  00000-0  11134-2 0  2641
2 25544  51.6351 170.4881 0019436   3.4496  93.7965 15.58685128222746


----
Via the sarex mailing list at AMSAT.ORG courtesy of AMSAT-NA.
To unsubscribe, send "unsubscribe sarex" to Majordomo@amsat.org



AMSAT Top AMSAT Home